www.pogodaiklimat.ru

АРХИВ ПОГОДЫ в Сан-Антонио

Время (UTC), дата Ветер
(напр.,м/с)
 
Видим.   Явления Облачность Т
(С)
Тd
(С)
f
(%)
Тe
(С)
Тes
(С)
Комфортность

P
(гПа)

Po
(гПа)
Тmin
(С)
Tmax
(С)
R
(мм)
SD
(см)
08:07 14.07 Ю  16 км    8/8 390 м  +25.0  +22.8  88  +33  +33  очень
душно 
  989.1         
08:51 14.07 Ю  16 км    8/8 420 м  +25.0  +22.8  88  +33  +33  очень
душно 
1016.6  989.1         
09:51 14.07 Ю  16 км    8/8 420 м  +25.6  +22.2  82  +33  +33  очень
душно 
1016.6  989.1         
09:58 14.07 Ю  16 км    10/10 510 м  +25.6  +22.2  82  +33  +33  очень
душно 
  989.1         
10:51 14.07 Ю  16 км    8/8 510 м  +25.0  +22.0  83  +32  +32  очень
душно 
1017.0  989.5  +25.0       
11:37 14.07 Ю  16 км    5/5 510 м
[верхняя] 
+25.0  +22.2  84  +32  +32  очень
душно 
  989.8         
11:51 14.07 Ю  4
{8} 
16 км    5/5 510 м
[верхняя] 
+25.0  +22.2  84  +32  +32  очень
душно 
1017.3  989.8         
12:51 14.07 ЮЗ  16 км    2/2 480 м
[верхняя] 
+26.7  +22.2  76  +35  +35  очень
душно 
1017.7  990.1         
13:51 14.07 Ю  16 км    5/5 630 м  +28.3  +22.2  70  +37  +38  очень
душно 
1018.0  990.5         
14:51 14.07 Ю  16 км    2/2 810 м  +29.4  +21.1  61  +37  +41  очень
душно 
1017.6  990.1         
15:51 14.07 ЮВ  16 км    2/2 1110 м  +30.6  +20.6  55  +38  +44  очень
душно 
1017.4  989.8         
16:51 14.07 Ю  16 км    2/2 1290 м  +31.7  +18.9  47  +37  +47  очень
душно 
1017.0  989.5         
17:51 14.07 Ю  16 км    2/2 1650 м
[верхняя] 
+33.3  +17.2  38  +37  +47  очень
душно 
1016.2  988.8         
18:51 14.07 ЮВ  4
{9} 
16 км    2/2 1950 м
[верхняя] 
+34.0  +19.0  41  +39  +49  очень
душно 
1015.6  988.1         
19:51 14.07 ЮВ  6
{11} 
16 км    5/5 1950 м
[верхняя] 
+34.0  +19.0  41  +39  +41  очень
душно 
1014.9  987.5         
20:51 14.07 ЮВ  6
{10} 
16 км    5/5 1800 м
[верхняя] 
+33.3  +18.9  43  +38  +40  очень
душно 
1014.4  986.8         
21:51 14.07 ЮВ  16 км    2/2 1800 м
[верхняя] 
+33.9  +17.8  38  +38  +40  очень
душно 
1013.9  986.5         
22:51 14.07 ЮВ  16 км    2/2 1800 м
[верхняя] 
+33.0  +18.0  41  +37  +38  очень
душно 
1013.2  985.8  +31.7       
23:51 14.07 ЮВ  16 км    2/2 1800 м
[верхняя] 
+32.2  +19.4  47  +38  +38  очень
душно 
1013.3  985.8         
00:51 15.07 ЮВ  16 км    2/2 1800 м
[верхняя] 
+30.6  +21.7  59  +39  +39  очень
душно 
1013.6  986.2         
01:51 15.07 ЮВ  7
{11} 
16 км    2/2 1800 м
[верхняя] 
+29.0  +21.0  62  +36  +36  очень
душно 
1014.2  986.8         
02:51 15.07 ЮВ  16 км    2/0 7500 м
[верхняя] 
+27.8  +21.7  69  +36  +36  очень
душно 
1015.2  987.8         
03:51 15.07 ЮВ  16 км    ясно  +27.2  +22.2  74  +35  +35  очень
душно 
1016.2  988.8         
04:51 15.07 ЮВ  16 км    5/5 540 м  +26.1  +22.8  82  +35  +35  очень
душно 
1016.2  988.8         
05:02 15.07 ЮВ  16 км    8/8 480 м  +26.1  +22.8  82  +35  +35  очень
душно 
  988.5         
05:51 15.07 ЮВ  16 км    8/8 390 м  +26.1  +22.8  82  +35  +35  очень
душно 
1016.0  988.5         
06:46 15.07 Ю  16 км    8/8 510 м  +26.0  +23.0  84  +35  +35  очень
душно 
  988.1         
06:51 15.07 Ю  16 км    8/8 510 м  +26.1  +22.8  82  +35  +35  очень
душно 
1015.7  988.1         
07:51 15.07 Ю  16 км    8/8 480 м  +26.1  +22.8  82  +35  +35  очень
душно 
1015.5  988.1         
08:51 15.07 Ю  16 км    5/5 450 м  +25.6  +22.8  85  +34  +34  очень
душно 
1015.4  987.8         
09:24 15.07 Ю  16 км    8/8 480 м  +25.6  +22.8  85  +34  +34  очень
душно 
  987.8         
09:51 15.07 Ю  16 км    8/8 510 м  +25.6  +22.8  85  +34  +34  очень
душно 
1015.2  987.8         
10:51 15.07 Ю  16 км    8/8 510 м  +25.6  +22.8  85  +34  +34  очень
душно 
1015.4  987.8         
11:51 15.07 Ю  13 км    10/10 540 м  +26.1  +22.2  79  +34  +34  очень
душно 
1015.7  988.1         
12:51 15.07 Ю  14 км    8/8 540 м
[верхняя] 
+26.7  +22.2  76  +35  +35  очень
душно 
1016.0  988.5         
13:42 15.07 Ю  16 км    5/5 780 м  +28.3  +22.2  70  +37  +38  очень
душно 
  988.8         
13:51 15.07 Ю  16 км    8/8 780 м
[верхняя] 
+28.0  +22.0  70  +36  +37  очень
душно 
1016.2  988.8         
14:51 15.07 Ю  16 км    8/5 810 м
[верхняя] 
+29.0  +22.0  66  +37  +40  очень
душно 
1016.1  988.5         
15:51 15.07 штиль  16 км    8/5 990 м
[верхняя] 
+30.6  +21.7  59  +39  +48  очень
душно 
1016.0  988.5         
16:51 15.07 Ю  16 км    8/2 1350 м
[верхняя] 
+32.0  +20.0  49  +38  +46  очень
душно 
1015.7  988.1  +25.6       
17:51 15.07 ЮВ  6
{9} 
16 км    8/2 1650 м
[верхняя] 
+33.3  +18.9  43  +38  +42  очень
душно 
1015.2  987.8         
18:51 15.07 ЮВ  6
{8} 
16 км    8/2 1800 м
[верхняя] 
+34.4  +18.9  40  +39  +43  очень
душно 
1014.4  987.2         
19:51 15.07 ЮВ  16 км    8/2 1950 м
[верхняя] 
+35.0  +17.0  34  +38  +46  очень
душно 
1013.5  986.2         
20:51 15.07 ЮВ  6
{10} 
16 км    5/2 1950 м
[верхняя] 
+34.4  +18.9  40  +39  +42  очень
душно 
1013.0  985.5         
21:51 15.07 ЮВ  7
{10} 
16 км    5/2 1950 м
[верхняя] 
+33.9  +18.9  41  +39  +40  очень
душно 
1012.3  984.9         
22:51 15.07 ЮВ  14 км    ясно  +33.3  +18.9  43  +38  +39  очень
душно 
1011.8  984.5    +35.0     
23:51 15.07 ЮВ  16 км    2/0 2100 м
[средняя верхняя] 
+31.7  +21.1  53  +39  +39  очень
душно 
1011.9  984.5         
00:51 16.07 ЮВ  16 км    2/2 1800 м
[верхняя] 
+30.0  +21.1  59  +38  +38  очень
душно 
1012.6  985.2         

 

Местоположение метеостанции San Antonio International Airport: широта 29.5328 долгота -98.4636 высота над уровнем моря 246 м.

В архиве по умолчанию представлена погода в Сан-Антонио за последние 1-2 суток. Обновление информации о фактической погоде в базе происходит ежечасно! Архивные данные за месяц целиком и за предыдущие месяцы Вы можете получить, выбрав интересующий диапазон дат из раскрывающегося списка и нажав кнопку "Ввод!".

Внимание! Архив погоды МЕТАР в базе сайта в настоящее время начинается c 1 января 2013 г. Нет смысла пытаться выбрать более раннюю дату.

Внимание! Время в таблицах - всемирное. Для получения местного времени необходимо прибавить поправку, которая в Сан-Антонио равна -6 ч.

Ветер - указаны скорость ветра в м/с и направление, откуда дует ветер: С - северный, СВ - северо-восточный, В - восточный, ЮВ - юго-восточный, Ю - южный, ЮЗ - юго-западный, З - западный, СЗ - северо-западный.
Видимость - горизонтальная дальность видимости в метрах или километрах. При видимости от 1 до 10 км при отсутствии осадков обычно наблюдается дымка, при ухудшении видимости до 1 км и менее - туман. В сухую погоду видимость может ухудшаться дымом, пылью или мглою.
Атмосферные явления - указаны явления, наблюдавшиеся в указанный момент времени.
Облачность - указаны через наклонную черту верхняя и нижняя облачность в баллах и высота нижней границы облаков в метрах. Внимание: облачность, как и прочие метеорологические величины в США измеряются автоматическими метеостанциями. Указанные значения в баллах носят условный характер и показывают процент времени, в течение которого, в среднем, лазерный луч высотомера отражался от облаков обратно.
T - Температура воздуха - температура, измеренная на высоте 2 м над землей.
Td - Температура точки росы - температура, при понижении до которой содержащийся в воздухе водяной пар достигнет насыщения.
f - Относительная влажность воздуха - влажноcть воздуха, измеренная на высоте 2 м над землей.
Te - Эффективная температура - температура, которую ощущает одетый по сезону человек в тени. Характеристика душности погоды. При расчете учитывается влияние влажности воздуха и скорости ветра на теплоощущения человека.
Tes - Эффективная температура на солнце - температура, которую ощущает человек, с поправкой на солнечный нагрев. Характеристика знойности погоды. Зависит от высоты солнца над горизонтом, облачности и скорости ветра. Ночью, в пасмурную погоду, а также при ветре 12 м/с и более поправка равна нулю.
P - Атмосферное давление - приведенное к уровню моря атмосферное давление.
Po - Атмосферное давление - измеренное на уровне метеостанции атмосферное давление.
Tmin - Минимальная температура - минимум температуры воздуха на высоте 2 м над землей.
Tmax - Максимальная температура - максимум температуры воздуха на высоте 2 м над землей.
R - Количество осадков - Количество выпавших осадков за 3 или 6 часов, мм.
SD - Снежный покров - Высота снежного покрова, см.